| time (UTC) | temp C | wind direction | speed KPH | gust KPH | rain 1hr cm | rain 24hr cm | rain mn cm | humidity % | barometer mb |
| 20260508033005 | 11 | 130 | 12.9 | 19.3 | 0.00 | 0.00 | 0.00 | 89 | 1014.4 |
| 20260508032006 | 11 | 134 | 9.7 | 19.3 | 0.00 | 0.00 | 0.00 | 89 | 1014.5 |
| 20260508031006 | 11 | 130 | 12.9 | 19.3 | 0.00 | 0.00 | 0.00 | 90 | 1014.6 |
| 20260508030005 | 11 | 135 | 9.7 | 14.5 | 0.00 | 0.00 | 0.00 | 90 | 1014.6 |
| 20260508024006 | 11 | 129 | 8.0 | 16.1 | 0.00 | 0.00 | 0.00 | 90 | 1014.7 |
| 20260508022006 | 11 | 135 | 4.8 | 12.9 | 0.00 | 0.00 | 0.00 | 90 | 1014.7 |
| 20260508021006 | 11 | 125 | 8.0 | 16.1 | 0.00 | 0.00 | 0.00 | 89 | 1014.6 |
| 20260508020006 | 11 | 141 | 8.0 | 14.5 | 0.00 | 0.00 | 0.00 | 89 | 1014.6 |
| 20260508015005 | 11 | 131 | 8.0 | 16.1 | 0.00 | 0.00 | 0.00 | 89 | 1014.6 |
| 20260508014006 | 11 | 139 | 9.7 | 19.3 | 0.00 | 0.00 | 0.00 | 89 | 1014.6 |
| 20260508012007 | 11 | 131 | 14.5 | 19.3 | 0.00 | 0.00 | 0.00 | 88 | 1014.8 |
| 20260508011006 | 11 | 138 | 9.7 | 19.3 | 0.00 | 0.00 | 0.00 | 87 | 1014.9 |
| 20260508010005 | 11 | 132 | 12.9 | 19.3 | 0.00 | 0.00 | 0.00 | 86 | 1015.0 |
| 20260508005006 | 11 | 128 | 12.9 | 24.1 | 0.00 | 0.00 | 0.00 | 85 | 1015.0 |
| 20260508004005 | 11 | 131 | 12.9 | 24.1 | 0.00 | 0.00 | 0.00 | 84 | 1014.9 |
| 20260508003006 | 11 | 130 | 11.3 | 19.3 | 0.00 | 0.00 | 0.00 | 86 | 1015.0 |
| 20260508002006 | 11 | 131 | 11.3 | 19.3 | 0.00 | 0.00 | 0.00 | 86 | 1015.0 |
| 20260508001006 | 11 | 134 | 11.3 | 19.3 | 0.00 | 0.00 | 0.00 | 86 | 1015.0 |
| 20260508000005 | 11 | 132 | 11.3 | 24.1 | 0.00 | 0.00 | 0.00 | 86 | 1015.0 |
| 20260507235006 | 11 | 129 | 14.5 | 19.3 | 0.00 | 0.00 | 0.00 | 86 | 1015.0 |
| 20260507234005 | 11 | 136 | 14.5 | 22.5 | 0.00 | 0.00 | 0.00 | 87 | 1015.2 |
| 20260507233005 | 11 | 131 | 16.1 | 24.1 | 0.00 | 0.00 | 0.00 | 87 | 1015.2 |
| 20260507232006 | 10 | 129 | 14.5 | 19.3 | 0.00 | 0.00 | 0.00 | 87 | 1015.3 |
| 20260507231006 | 10 | 130 | 14.5 | 19.3 | 0.00 | 0.00 | 0.00 | 87 | 1015.4 |
| 20260507230005 | 10 | 125 | 11.3 | 19.3 | 0.00 | 0.00 | 0.00 | 87 | 1015.4 |
| 20260507225005 | 10 | 134 | 8.0 | 16.1 | 0.00 | 0.00 | 0.00 | 87 | 1015.4 |
| 20260507224005 | 10 | 145 | 8.0 | 19.3 | 0.00 | 0.00 | 0.00 | 86 | 1015.5 |
| 20260507223005 | 10 | 132 | 9.7 | 19.3 | 0.00 | 0.00 | 0.00 | 87 | 1015.6 |
| 20260507222005 | 10 | 131 | 9.7 | 19.3 | 0.00 | 0.00 | 0.00 | 86 | 1015.6 |
| 20260507221005 | 10 | 131 | 9.7 | 19.3 | 0.00 | 0.00 | 0.00 | 87 | 1015.6 |
| 20260507220005 | 10 | 136 | 8.0 | 12.9 | 0.00 | 0.00 | 0.00 | 86 | 1015.6 |
| 20260507215005 | 10 | 132 | 9.7 | 19.3 | 0.00 | 0.00 | 0.00 | 86 | 1015.6 |
| 20260507214005 | 10 | 130 | 11.3 | 19.3 | 0.00 | 0.00 | 0.00 | 85 | 1015.7 |
| 20260507212005 | 10 | 137 | 8.0 | 16.1 | 0.00 | 0.00 | 0.00 | 86 | 1015.7 |
| 20260507211005 | 10 | 137 | 9.7 | 19.3 | 0.00 | 0.00 | 0.00 | 86 | 1015.7 |
| 20260507210006 | 10 | 139 | 8.0 | 19.3 | 0.00 | 0.00 | 0.00 | 87 | 1015.7 |
| 20260507205005 | 10 | 131 | 11.3 | 19.3 | 0.00 | 0.00 | 0.00 | 88 | 1015.6 |
| 20260507204005 | 10 | 136 | 4.8 | 12.9 | 0.00 | 0.00 | 0.00 | 89 | 1015.5 |
| 20260507203005 | 9 | 133 | 4.8 | 11.3 | 0.00 | 0.00 | 0.00 | 88 | 1015.6 |
| 20260507202005 | 10 | 129 | 8.0 | 12.9 | 0.00 | 0.00 | 0.00 | 87 | 1015.6 |
| 20260507201005 | 10 | 139 | 3.2 | 8.0 | 0.00 | 0.00 | 0.00 | 86 | 1015.5 |
| 20260507200005 | 10 | 136 | 4.8 | 12.9 | 0.00 | 0.00 | 0.00 | 86 | 1015.4 |
| 20260507195005 | 10 | 142 | 4.8 | 12.9 | 0.00 | 0.00 | 0.00 | 86 | 1015.2 |
| 20260507194005 | 10 | 135 | 9.7 | 12.9 | 0.00 | 0.00 | 0.00 | 85 | 1015.2 |
| 20260507192005 | 11 | 131 | 8.0 | 14.5 | 0.00 | 0.00 | 0.00 | 85 | 1015.0 |
| 20260507191005 | 11 | 136 | 9.7 | 19.3 | 0.00 | 0.00 | 0.00 | 84 | 1014.9 |
| 20260507190005 | 11 | 130 | 9.7 | 14.5 | 0.00 | 0.00 | 0.00 | 83 | 1014.9 |
| 20260507185006 | 11 | 130 | 9.7 | 14.5 | 0.00 | 0.00 | 0.00 | 83 | 1014.9 |
| 20260507184005 | 11 | 131 | 12.9 | 19.3 | 0.00 | 0.00 | 0.00 | 82 | 1014.8 |
| 20260507183005 | 12 | 133 | 11.3 | 19.3 | 0.00 | 0.00 | 0.00 | 81 | 1014.7 |
| 20260507182005 | 12 | 123 | 9.7 | 16.1 | 0.00 | 0.00 | 0.00 | 80 | 1014.8 |
| 20260507181005 | 12 | 129 | 11.3 | 19.3 | 0.00 | 0.00 | 0.00 | 80 | 1014.7 |
| 20260507180005 | 12 | 131 | 11.3 | 19.3 | 0.00 | 0.00 | 0.00 | 79 | 1014.7 |
| 20260507175005 | 13 | 129 | 9.7 | 19.3 | 0.00 | 0.00 | 0.00 | 77 | 1014.7 |
| 20260507174005 | 13 | 131 | 14.5 | 22.5 | 0.00 | 0.00 | 0.00 | 76 | 1014.7 |
| 20260507173005 | 13 | 140 | 14.5 | 19.3 | 0.00 | 0.00 | 0.00 | 75 | 1014.7 |
| 20260507171005 | 15 | 138 | 11.3 | 19.3 | 0.00 | 0.00 | 0.00 | 72 | 1014.6 |
| 20260507163005 | 15 | 132 | 11.3 | 19.3 | 0.00 | 0.00 | 0.00 | 70 | 1014.9 |
| 20260507161005 | 16 | 129 | 14.5 | 22.5 | 0.00 | 0.00 | 0.00 | 68 | 1014.9 |
| 20260507160005 | 16 | 130 | 11.3 | 19.3 | 0.00 | 0.00 | 0.00 | 70 | 1015.0 |
| 20260507155006 | 16 | 129 | 11.3 | 19.3 | 0.00 | 0.00 | 0.00 | 65 | 1015.0 |
| 20260507152005 | 16 | 130 | 11.3 | 19.3 | 0.00 | 0.00 | 0.00 | 67 | 1015.1 |
| 20260507145004 | 16 | 129 | 16.1 | 24.1 | 0.00 | 0.00 | 0.00 | 61 | 1015.1 |
| 20260507144004 | 16 | 131 | 16.1 | 22.5 | 0.00 | 0.00 | 0.00 | 62 | 1015.2 |
| 20260507143004 | 16 | 143 | 11.3 | 24.1 | 0.00 | 0.00 | 0.00 | 62 | 1015.3 |
| 20260507142005 | 16 | 132 | 16.1 | 24.1 | 0.00 | 0.00 | 0.00 | 62 | 1015.3 |
| 20260507140005 | 16 | 133 | 9.7 | 24.1 | 0.00 | 0.00 | 0.00 | 62 | 1015.5 |
| 20260507135005 | 16 | 139 | 14.5 | 24.1 | 0.00 | 0.00 | 0.00 | 62 | 1015.5 |
| 20260507134004 | 16 | 143 | 6.4 | 24.1 | 0.00 | 0.00 | 0.00 | 58 | 1015.5 |
| 20260507133005 | 16 | 131 | 12.9 | 24.1 | 0.00 | 0.00 | 0.00 | 65 | 1015.5 |
| 20260507132006 | 16 | 131 | 16.1 | 24.1 | 0.00 | 0.00 | 0.00 | 64 | 1015.5 |
| 20260507131004 | 16 | 138 | 11.3 | 24.1 | 0.00 | 0.00 | 0.00 | 65 | 1015.5 |
| 20260507130005 | 15 | 144 | 9.7 | 19.3 | 0.00 | 0.00 | 0.00 | 64 | 1015.5 |
| 20260507124004 | 15 | 142 | 8.0 | 24.1 | 0.00 | 0.00 | 0.00 | 67 | 1015.6 |
| 20260507123006 | 15 | 131 | 16.1 | 24.1 | 0.00 | 0.00 | 0.00 | 68 | 1015.7 |
| 20260507120005 | 16 | 143 | 11.3 | 19.3 | 0.00 | 0.00 | 0.00 | 69 | 1015.8 |
| 20260507115004 | 16 | 140 | 11.3 | 25.7 | 0.00 | 0.00 | 0.00 | 69 | 1015.8 |
| 20260507113005 | 16 | 129 | 12.9 | 25.7 | 0.00 | 0.00 | 0.00 | 69 | 1015.6 |
| 20260507112004 | 16 | 131 | 14.5 | 27.4 | 0.00 | 0.00 | 0.00 | 68 | 1015.7 |
| 20260507111007 | 16 | 130 | 11.3 | 24.1 | 0.00 | 0.00 | 0.00 | 69 | 1015.7 |
| 20260507110005 | 16 | 130 | 12.9 | 19.3 | 0.00 | 0.00 | 0.00 | 69 | 1015.8 |
| 20260507105004 | 16 | 147 | 11.3 | 22.5 | 0.00 | 0.00 | 0.00 | 70 | 1015.9 |
| 20260507104004 | 15 | 126 | 12.9 | 22.5 | 0.00 | 0.00 | 0.00 | 73 | 1015.8 |
| 20260507103004 | 15 | 129 | 16.1 | 22.5 | 0.00 | 0.00 | 0.00 | 70 | 1015.8 |
| 20260507101004 | 15 | 118 | 12.9 | 27.4 | 0.00 | 0.00 | 0.00 | 74 | 1015.9 |
| 20260507100004 | 15 | 135 | 11.3 | 24.1 | 0.00 | 0.00 | 0.00 | 74 | 1015.8 |
| 20260507095004 | 15 | 142 | 14.5 | 29.0 | 0.00 | 0.00 | 0.00 | 76 | 1015.8 |
| 20260507094004 | 15 | 129 | 11.3 | 22.5 | 0.00 | 0.00 | 0.00 | 76 | 1015.8 |
| 20260507093006 | 14 | 135 | 16.1 | 24.1 | 0.00 | 0.00 | 0.00 | 76 | 1015.7 |
| 20260507092004 | 13 | 144 | 8.0 | 19.3 | 0.00 | 0.00 | 0.00 | 75 | 1015.9 |
| 20260507090007 | 14 | 137 | 9.7 | 19.3 | 0.00 | 0.00 | 0.00 | 80 | 1015.8 |
| 20260507085006 | 13 | 130 | 14.5 | 19.3 | 0.00 | 0.00 | 0.00 | 79 | 1015.8 |
| 20260507084006 | 13 | 130 | 11.3 | 24.1 | 0.00 | 0.00 | 0.00 | 79 | 1015.7 |
| 20260507082006 | 12 | 124 | 11.3 | 24.1 | 0.00 | 0.00 | 0.00 | 82 | 1015.6 |
| 20260507081006 | 12 | 145 | 9.7 | 22.5 | 0.00 | 0.00 | 0.00 | 83 | 1015.5 |
| 20260507080006 | 12 | 131 | 9.7 | 24.1 | 0.00 | 0.00 | 0.00 | 83 | 1015.5 |
| 20260507075006 | 12 | 132 | 16.1 | 24.1 | 0.00 | 0.00 | 0.00 | 83 | 1015.4 |
| 20260507074006 | 11 | 133 | 11.3 | 22.5 | 0.00 | 0.00 | 0.00 | 85 | 1015.4 |
| 20260507073006 | 11 | 132 | 12.9 | 24.1 | 0.00 | 0.00 | 0.00 | 87 | 1015.3 |
| 20260507072006 | 11 | 130 | 14.5 | 24.1 | 0.00 | 0.00 | 0.00 | 88 | 1015.2 |
| 20260507071006 | 11 | 129 | 14.5 | 24.1 | 0.00 | 0.00 | 0.00 | 92 | 1015.2 |
| 20260507070010 | 10 | 145 | 11.3 | 19.3 | 0.00 | 0.00 | 0.00 | 95 | 1015.1 |
| 20260507065007 | 10 | 142 | 11.3 | 19.3 | 0.00 | 0.00 | 0.00 | 96 | 1015.1 |
| 20260507063006 | 8 | 138 | 3.2 | 8.0 | 0.00 | 0.00 | 0.00 | 96 | 1015.2 |
| 20260507062006 | 7 | 136 | 3.2 | 4.8 | 0.00 | 0.00 | 0.00 | 96 | 1015.2 |
| 20260507061006 | 7 | 243 | 1.6 | 3.2 | 0.00 | 0.00 | 0.00 | 96 | 1015.2 |
| 20260507060006 | 7 | 267 | 1.6 | 3.2 | 0.00 | 0.00 | 0.00 | 96 | 1015.1 |
| 20260507055006 | 6 | 291 | 0.0 | 1.6 | 0.00 | 0.00 | 0.00 | 96 | 1015.0 |
| 20260507053006 | 5 | 291 | 0.0 | 0.0 | 0.00 | 0.00 | 0.00 | 95 | 1015.1 |
| 20260507052006 | 5 | 291 | 0.0 | 0.0 | 0.00 | 0.00 | 0.00 | 95 | 1015.0 |
| 20260507050006 | 5 | 291 | 0.0 | 0.0 | 0.00 | 0.00 | 0.00 | 93 | 1014.9 |
| 20260507045006 | 5 | 291 | 0.0 | 0.0 | 0.00 | 0.00 | 0.00 | 93 | 1014.8 |
| 20260507044007 | 5 | 291 | 0.0 | 0.0 | 0.00 | 0.00 | 0.00 | 93 | 1014.8 |
| 20260507043006 | 5 | 291 | 0.0 | 0.0 | 0.00 | 0.00 | 0.00 | 93 | 1014.7 |
| 20260507042006 | 5 | 291 | 0.0 | 0.0 | 0.00 | 0.00 | 0.00 | 93 | 1014.7 |
| 20260507041006 | 5 | 291 | 0.0 | 0.0 | 0.00 | 0.00 | 0.00 | 92 | 1014.6 |
| 20260507040006 | 5 | 291 | 0.0 | 0.0 | 0.00 | 0.00 | 0.00 | 92 | 1014.6 |
| 20260507035006 | 6 | 291 | 0.0 | 0.0 | 0.00 | 0.00 | 0.00 | 92 | 1014.6 |
| 20260507034006 | 6 | 291 | 0.0 | 0.0 | 0.00 | 0.00 | 0.00 | 93 | 1014.6 |